TimeMST,TemperatureF,Dew PointF,Humidity,Sea Level PressureIn,VisibilityMPH,Wind Direction,Wind SpeedMPH,Gust SpeedMPH,PrecipitationIn,Events,Conditions,WindDirDegrees,DateUTC
12:53 AM,46.9,37.9,71,30.11,10.0,South,5.8,-,N/A,,Clear,190,2012-10-14 07:53:00
1:53 AM,46.0,37.0,71,30.13,10.0,SSW,4.6,-,N/A,,Clear,200,2012-10-14 08:53:00
2:53 AM,46.0,37.0,71,30.10,10.0,SSW,10.4,-,N/A,,Clear,200,2012-10-14 09:53:00
3:53 AM,45.0,37.0,74,30.09,10.0,SSW,9.2,-,N/A,,Clear,200,2012-10-14 10:53:00
4:53 AM,46.0,37.0,71,30.12,10.0,Calm,Calm,-,N/A,,Clear,0,2012-10-14 11:53:00
5:53 AM,43.0,37.0,80,30.13,10.0,SSW,3.5,-,N/A,,Clear,200,2012-10-14 12:53:00
6:53 AM,44.1,36.0,73,30.16,10.0,SSW,5.8,-,N/A,,Clear,210,2012-10-14 13:53:00
7:53 AM,51.1,39.0,63,30.18,10.0,NNW,5.8,-,N/A,,Clear,330,2012-10-14 14:53:00
8:53 AM,57.9,37.9,47,30.17,10.0,NNW,5.8,-,N/A,,Clear,330,2012-10-14 15:53:00
9:53 AM,63.0,37.9,40,30.17,10.0,North,6.9,-,N/A,,Clear,360,2012-10-14 16:53:00
10:53 AM,66.0,37.9,36,30.13,10.0,Calm,Calm,-,N/A,,Clear,0,2012-10-14 17:53:00
11:53 AM,71.1,35.1,27,30.11,10.0,East,5.8,-,N/A,,Clear,90,2012-10-14 18:53:00
12:53 PM,73.9,33.1,22,30.08,10.0,Variable,4.6,-,N/A,,Clear,0,2012-10-14 19:53:00
1:53 PM,75.0,28.9,18,30.05,10.0,SSE,11.5,20.7,N/A,,Partly Cloudy,150,2012-10-14 20:53:00
2:53 PM,73.9,30.9,21,30.04,10.0,Calm,Calm,-,N/A,,Partly Cloudy,0,2012-10-14 21:53:00
3:53 PM,75.0,32.0,21,30.03,10.0,SE,9.2,-,N/A,,Partly Cloudy,140,2012-10-14 22:53:00
4:53 PM,75.0,32.0,21,30.03,10.0,Calm,Calm,-,N/A,,Clear,0,2012-10-14 23:53:00
5:53 PM,70.0,32.0,25,30.05,10.0,SE,4.6,-,N/A,,Clear,130,2012-10-15 00:53:00
6:53 PM,64.9,33.1,31,30.07,10.0,Calm,Calm,-,N/A,,Clear,0,2012-10-15 01:53:00
7:53 PM,61.0,34.0,36,30.08,10.0,SSE,3.5,-,N/A,,Clear,150,2012-10-15 02:53:00
8:53 PM,60.1,33.1,36,30.06,10.0,Calm,Calm,-,N/A,,Clear,0,2012-10-15 03:53:00
9:53 PM,51.1,37.9,61,30.08,10.0,SSW,6.9,-,N/A,,Clear,210,2012-10-15 04:53:00
10:53 PM,48.9,36.0,61,30.08,10.0,Calm,Calm,-,N/A,,Clear,0,2012-10-15 05:53:00
11:53 PM,48.0,34.0,58,30.06,10.0,SSW,3.5,-,N/A,,Clear,200,2012-10-15 06:53:00